Home   Weather   Ghazni   Past weeks

Flag for Afghanistan Past Weather in Ghazni, Afghanistan — Yesterday and Last 2 Weeks

Now
50 °F

Passing clouds.


Feels Like: 46 °F
Forecast: 27 / 31 °F
Wind: 9 mph from Southwest

Location: Peshawar Airport

Current Time: Jan 23, 2017 at 3:08:57 am

Latest Report: Jan 23, 2017 at 2:30 am


Visibility: 2 mi

Pressure: 30.21 "Hg (23.21 "Hg at 2184m altitude)

Humidity: 62%

Dew Point: 37 °F

Location of GhazniLocation

Past Weather in Ghazni — Graph

°F

Ghazni Temperature Yesterday

Maximum temperature yesterday: 68 °F (at 2:30 pm)
Minimum temperature yesterday: 48 °F (at 4:29 am)
Average temperature yesterday: 57 °F

High & Low Weather Summary for the Past Weeks

 TemperatureHumidityPressure
High68 °F (Jan 22, 2:30 pm)94% (Jan 18, 12:30 pm)30.42 "Hg (Jan 18, 12:30 pm)
Low36 °F (Jan 10, 6:30 am)27% (Jan 10, 1:30 pm)29.98 "Hg (Jan 8, 1:30 am)
Average51 °F62%30.14 "Hg
* Reported Jan 8 1:30 am — Jan 23 1:30 am, Ghazni, Weather by CustomWeather, © 2017

Note: Actual official high and low records may vary slightly from our data, if they occured in-between our weather recording intervals... More about our weather records

Advertising

Ghazni Weather History for the Previous 24 Hours

Scroll right to see more
 ConditionsComfort  
Time TempWeatherWind HumidityBarometerVisibility
1:30 am
Mon, Jan 23
50 °FPassing clouds.9 mph62%30.21 "Hg2 mi
1:00 am50 °FPassing clouds.9 mph62%30.21 "Hg2 mi
12:30 am50 °FPassing clouds.9 mph62%30.21 "Hg2 mi
12:00 am54 °FPassing clouds.5 mph63%30.24 "Hg2 mi
11:30 pm
Sun, Jan 22
54 °FPassing clouds.5 mph63%30.24 "Hg2 mi
11:00 pm54 °FPassing clouds.5 mph63%30.24 "Hg2 mi
10:30 pm54 °FPassing clouds.5 mph63%30.24 "Hg2 mi
10:00 pm57 °FPassing clouds.5 mph59%30.24 "Hg2 mi
9:30 pm57 °FPassing clouds.5 mph59%30.24 "Hg2 mi
8:30 pm57 °FPassing clouds.5 mph59%30.21 "Hg2 mi
8:00 pm59 °FPassing clouds.No wind55%30.21 "Hg2 mi
7:30 pm59 °FPassing clouds.No wind55%30.21 "Hg2 mi
6:30 pm63 °FPassing clouds.No wind49%30.21 "Hg2 mi
4:30 pm66 °FScattered clouds.5 mph43%30.21 "Hg3 mi
4:00 pm68 °FScattered clouds.5 mph40%30.21 "Hg3 mi
3:30 pm68 °FScattered clouds.5 mph40%30.21 "Hg3 mi
3:00 pm68 °FScattered clouds.5 mph40%30.21 "Hg3 mi
2:30 pm68 °FScattered clouds.5 mph40%30.21 "Hg3 mi
1:30 pm66 °FScattered clouds.No wind43%30.24 "Hg2 mi
12:30 pm66 °FScattered clouds.No wind43%30.24 "Hg2 mi
11:30 am66 °FScattered clouds.5 mph43%30.27 "Hg2 mi
11:00 am64 °FScattered clouds.No wind46%30.30 "Hg2 mi
10:30 am64 °FScattered clouds.No wind46%30.30 "Hg2 mi
10:00 am59 °FHaze.No wind55%30.27 "Hg2 mi
9:30 am59 °FHaze.No wind55%30.27 "Hg2 mi
9:00 am52 °FHaze.5 mph62%30.27 "Hg2 mi
8:30 am52 °FHaze.5 mph62%30.27 "Hg2 mi
8:00 am50 °FHaze.5 mph67%30.24 "Hg2 mi
7:30 am50 °FHaze.5 mph67%30.24 "Hg2 mi
6:30 am48 °FPassing clouds.7 mph71%30.21 "Hg2 mi
5:30 am48 °FPassing clouds.9 mph71%30.21 "Hg2 mi
4:29 am48 °FPartly cloudy.7 mph66%30.21 "Hg2 mi
3:30 am50 °FPassing clouds.5 mph62%30.21 "Hg2 mi
Weather by CustomWeather, © 2017

See weather overviewHow to use our weather pages